Location: Cold Springs Branch
(38.5422°N, 100.1404°W)
Time: 00:37:17
(UTC+00:00)

Daily predictions for brighter satellites

Satellite Brightness Start Highest point End
(mag) Time Altitude Azimuth Time Altitude Azimuth Time Altitude Azimuth
ISS -2.3 00:00:05 10° NNW 00:02:50 22° NNE 00:05:06 12° ENE
Lacrosse 5 rocket 3.3 00:04:35 10° N 00:06:04 12° NNE 00:07:18 11° NE
Cosmos 921 Rocket 4.2 00:06:56 10° SSE 00:10:09 22° E 00:12:43 13° NE
H-2A R/B 2.3 00:07:51 10° SE 00:12:45 44° ENE 00:17:32 10° N
Cosmos 841 Rocket 3.7 00:08:05 10° SSW 00:13:14 75° WNW 00:18:24 10° NNE
X-37B 2.2 00:11:18 10° S 00:13:27 19° SE 00:14:56 14° ESE
SMAP 3.1 00:09:09 10° SSE 00:13:47 89° WSW 00:18:28 10° NNW
CZ-2C R/B 3.0 00:10:36 10° NNE 00:15:25 38° E 00:20:13 10° SSE
AQUARIUS 4.1 00:10:58 10° SSE 00:15:26 81° ENE 00:19:57 10° N
COSMO-SKYMED 1 3.2 00:11:39 10° NNE 00:15:37 34° E 00:19:34 10° SSE
Cosmos 1666 3.2 00:15:40 10° NNE 00:19:05 34° ENE 00:22:29 10° SE
CZ-4B R/B 3.6 00:14:16 10° SE 00:19:15 38° ENE 00:24:10 10° N
PSLV R/B 3.6 00:17:43 10° SSE 00:21:21 63° ENE 00:25:01 10° N
Cosmos 1633 Rocket 3.5 00:17:27 10° N 00:21:31 37° ENE 00:25:35 10° SE
PAYLOAD B 4.3 00:16:44 10° SSE 00:22:14 61° ENE 00:27:45 10° N
Cosmos 1937 Rocket 3.7 00:17:56 10° NNW 00:23:17 79° WSW 00:28:34 10° SSE
Cosmos 1092 Rocket 4.3 00:17:44 10° N 00:24:05 73° W 00:30:21 10° S
Cosmos 1151 Rocket 2.9 00:21:31 10° S 00:25:47 68° E 00:30:06 10° NNE
MOS 1-B Rocket 4.2 00:20:02 10° NNE 00:26:08 71° ESE 00:33:11 10° S
Cosmos 44 Rocket 4.3 00:25:50 10° N 00:29:48 24° NE 00:31:15 21° ENE
Cosmos 372 Rocket 3.9 00:25:04 10° NNW 00:30:19 75° ENE 00:35:33 10° SSE
Meteor 2-16 Rocket 4.4 00:24:44 10° N 00:30:47 60° E 00:36:49 10° SSE
USA 267 4.2 00:26:15 10° NE 00:32:11 39° NNW 00:38:06 10° W
CZ-4C R/B 3.2 00:26:25 10° NNW 00:33:41 54° NE 00:42:00 10° SE
COSMOS 2455 3.8 00:32:34 10° SW 00:38:18 46° WNW 00:44:06 10° NNE
Cosmos 1812 3.0 00:34:58 10° SSW 00:38:46 69° W 00:42:37 10° N
Okean O Rocket 1.9 00:36:20 10° SE 00:40:31 43° ENE 00:44:45 10° N
Cosmos 2142 Rocket 4.5 00:34:53 10° S 00:41:01 87° W 00:47:16 10° N
SL-24 R/B - RUBIN 2 3.4 00:38:04 10° NNW 00:42:31 85° ENE 00:46:49 10° SSE
DEBRIS 3.1 00:41:36 10° SSW 00:43:43 35° SE 00:44:20 32° ESE
Cosmos 1900 4.3 00:39:30 10° SSW 00:44:22 81° WNW 00:48:06 17° NNE
Meteor 1-10 Rocket 4.4 00:39:12 10° S 00:44:48 52° E 00:50:19 10° NNE
Landsat 5 3.5 00:43:08 22° NNE 00:45:31 50° E 00:49:19 10° S
Cosmos 2279 Rocket 4.0 00:39:36 10° S 00:45:49 85° W 00:52:04 10° N
Cosmos 1328 Rocket 3.5 00:42:54 10° S 00:47:20 83° E 00:51:48 10° N
Cosmos 1666 Rocket 3.5 00:44:08 10° N 00:48:35 85° W 00:52:58 10° S
Meteor 1-11 Rocket 4.2 00:44:54 10° N 00:50:03 35° ENE 00:55:14 10° SE
Cosmos 1470 Rocket 3.8 00:47:38 10° N 00:51:57 46° E 00:56:15 10° SSE
Cosmos 2266 Rocket 4.2 00:48:36 10° N 00:54:47 49° E 01:00:57 10° SSE
SJ-11-01 4.2 00:50:31 10° SSE 00:55:13 67° ENE 00:59:56 10° N
APEX 3.1 00:52:06 10° SSW 00:56:14 60° ESE 00:56:48 52° ENE
CZ-2C R/B 2.2 00:53:34 10° SW 00:57:32 38° SSE 00:58:39 31° SE
Tiangong 3.6 00:58:07 10° S 00:58:58 13° SSE 00:58:58 13° SSE
Feng Yun 1-1 Rocket 4.5 00:56:33 10° SE 01:02:14 50° ENE 01:07:53 10° N
Cosmos 2322 Rocket 3.4 00:58:07 10° N 01:01:24 24° NNE 01:01:24 24° NNE
USA 234 3.2 00:56:45 10° SE 01:03:18 87° NE 01:09:53 10° NW
SKYMED 2 3.9 00:59:26 10° N 01:03:45 65° WNW 01:08:02 10° SSW
Cosmos 1980 Rocket 2.9 01:02:34 10° NNW 01:08:05 55° WSW 01:13:32 10° S
Meteor 2-15 4.4 01:02:15 10° S 01:08:22 90° NNE 01:14:29 10° N
NOSS 3-3 (A) 4.3 01:03:33 10° S 01:08:32 36° ESE 01:08:49 36° ESE
NOSS 3-3 (C) 4.3 01:03:40 10° S 01:08:39 36° ESE 01:08:53 36° ESE
CZ-4C R/B 3.3 01:10:13 53° S 01:10:13 53° S 01:12:53 10° S
H-2A R/B 4.4 01:21:46 12° SSE 01:21:46 12° SSE 01:22:11 10° SSE
deb Chang Zheng 4 4.1 01:14:43 10° S 01:18:57 57° WSW 01:23:12 10° NNW
Cosmos 2298 Rocket 3.9 01:14:24 10° NNW 01:19:43 66° ENE 01:21:55 35° SE
Cosmos 2082 Rocket 4.1 01:15:54 10° WSW 01:20:34 25° WNW 01:25:13 10° N
GPS 2-04 Rocket1 4.2 01:17:53 10° W 01:21:32 30° SSW 01:22:27 27° S
SL-16 R/B 2.4 01:16:13 10° NNW 01:21:12 48° NE 01:21:12 48° NE
DMSP B5D2-2 3.9 01:26:09 59° NE 01:27:04 73° ESE 01:32:17 10° S
Cosmos 1241 Rocket 4.4 01:22:28 10° SSW 01:28:47 63° ESE 01:29:45 56° ENE
ARGOS 3.7 01:25:02 10° S 01:30:22 59° W 01:35:43 10° NNW
Cosmos 1515 Rocket 4.1 01:26:47 10° SSW 01:31:10 59° W 01:32:50 35° NNW
NOAA 15 4.4 01:26:17 10° SSE 01:31:33 76° ENE 01:36:50 10° N
Cosmos 1818 3.4 01:26:21 10° NNW 01:31:51 83° ENE 01:32:43 64° SE
Cosmos 836 Rocket 4.5 01:30:01 10° SSW 01:35:19 84° WNW 01:36:14 62° N
SL-08 RB Rocket 4.0 01:31:26 10° S 01:36:03 67° W 01:40:38 10° NNW
Cosmos 1655 Rocket 4.2 01:31:23 10° N 01:37:45 74° W 01:44:02 10° S
ISS -1.5 01:36:31 10° WNW 01:38:07 24° WNW 01:38:07 24° WNW
Lacrosse 5 rocket 3.5 01:41:50 10° NW 01:42:56 18° NNW 01:42:56 18° NNW
X-37B 3.9 01:45:55 10° WSW 01:46:10 12° W 01:46:10 12° W
Meteor 1-27 Rocket 3.9 01:44:53 10° SSW 01:50:23 67° W 01:51:41 50° NNW
Cosmos 1867 3.6 01:46:24 10° SW 01:51:33 74° W 01:51:33 74° W
IRAS Rocket 4.2 01:53:57 77° WSW 01:53:57 77° WSW 01:59:08 10° SSW
Cosmos 2150 Rocket 4.4 01:51:19 10° NNW 01:56:26 61° WSW 01:56:31 61° WSW
Cosmos 1125 Rocket 4.5 02:05:29 10° NNW 02:09:38 44° WNW 02:09:38 44° WNW
Okean O Rocket 4.5 02:14:19 10° SW 02:17:02 16° W 02:19:47 10° NW
CZ-4C R/B 4.3 02:15:14 10° NW 02:22:17 38° WSW 02:30:02 10° S
Cosmos 2322 Rocket 4.4 02:41:44 10° NW 02:43:17 18° NW 02:43:17 18° NW
CENTAUR R/B 4.1 10:53:11 23° N 10:53:11 23° N 10:56:06 10° NNE
Envisat 4.5 11:02:43 10° NNE 11:07:23 35° E 11:12:00 10° SSE
Cosmos 2098 Rocket 4.4 11:14:02 34° NE 11:14:02 34° NE 11:17:13 10° NNE
Cosmos 2263 4.2 11:13:04 78° SSE 11:13:21 82° ESE 11:19:07 10° NNE
Cosmos 2369 Rocket 3.0 11:21:47 36° N 11:21:47 36° N 11:25:09 10° NNE
ATLAS 3B R/B 4.4 11:15:04 10° SSE 11:20:32 30° ESE 11:26:11 10° NE
Cosmos 1656 Rocket 3.5 11:24:00 76° NNW 11:24:00 76° NNW 11:29:06 10° NNE
Meteor 1-26 Rocket 4.1 11:27:57 70° W 11:28:05 70° W 11:33:43 10° S
DELTA 2 R/B (1) 3.4 11:29:48 76° W 11:30:16 88° N 11:35:50 10° E
Cosmos 1943 Rocket 4.4 11:40:36 11° N 11:40:36 11° N 11:40:46 10° N
CZ-2C R/B 3.3 11:32:01 10° SSE 11:37:21 55° ENE 11:42:36 10° N
SJ 16-02 3.4 11:33:47 10° SSE 11:37:31 28° E 11:41:16 10° NE
Cosmos 1354 Rocket 4.2 11:32:51 10° S 11:38:05 73° ESE 11:43:23 10° NNE
SL-19 R/B 4.3 11:35:36 10° SSE 11:41:11 82° ENE 11:45:39 17° NNW
Cosmos 2279 Rocket 4.1 11:36:37 10° N 11:42:49 74° E 11:49:00 10° SSE
USA 215 4.3 11:45:55 10° E 11:51:49 38° NNE 11:56:13 17° NNW
Centaur D-1A AC-31 3.6 11:50:55 10° SSW 11:52:53 13° S 11:55:51 10° SSE
Cosmos 921 Rocket 3.8 11:56:14 35° SW 11:56:14 35° SW 11:59:30 10° S
